Date String (YYYY-MM-DD hh:mm:ss) UTC,Instrument flags,Ambient pressure (hPa),Sample flow (lpm),Bypass flow (lpm),Sample temperature (°C),Ambient temperature (°C),ASC tube jacket temperature (°C),LED temperature (°C),Box temperature (°C),Sample RH (%),Span deviation,Mass concentration (μg/m³),Mass concentration (μg/m³),Mass concentration (μg/m³)
DateTimeUTC,F1_M11,P_M11,Q1_M11,Q2_M11,T1_M11,T2_M11,T3_M11,T4_M11,T5_M11,U1_M11,ZSPAN_M11,X0_M11,X2_M11,X1_M11
2022-05-18 15:00:00,,0827.7,5.00,0.00,29.9,28.5,00.0,39.0,31.7,23.9,0000.0,0014.87,0004.15,0002.69
2022-05-18 15:01:00,,0827.6,5.00,0.00,29.9,28.5,00.0,39.0,31.7,23.2,0000.0,0015.11,0004.15,0002.70
2022-05-18 15:02:00,,0827.7,5.00,0.00,29.9,28.5,00.0,39.0,31.7,22.0,0000.0,0014.91,0004.14,0002.68
2022-05-18 15:03:00,,0827.7,5.00,0.00,29.9,28.5,00.0,39.0,31.7,22.9,0000.0,0014.77,0004.16,0002.68
2022-05-18 15:04:00,,0827.7,5.01,0.00,29.9,28.5,00.0,39.0,31.7,22.4,0000.0,0014.84,0004.18,0002.67
2022-05-18 15:05:00,,0827.7,5.00,0.00,29.9,28.5,00.0,39.0,31.7,21.5,0000.0,0013.31,0004.13,0002.63
2022-05-18 15:06:00,,0827.7,5.00,0.00,29.9,28.6,00.0,39.0,31.8,20.2,0000.0,0013.53,0004.09,0002.59
2022-05-18 15:07:00,,0827.7,4.99,0.00,30.0,28.6,00.0,39.0,31.8,21.5,0000.0,0013.31,0004.02,0002.55
2022-05-18 15:08:00,,0827.7,5.00,0.00,30.0,28.6,00.0,39.0,31.8,22.9,0000.0,0012.13,0003.97,0002.51
2022-05-18 15:09:00,,0827.6,5.00,0.00,30.0,28.6,00.0,39.0,31.8,22.0,0000.0,0011.81,0003.95,0002.47
2022-05-18 15:10:00,,0827.7,5.01,0.00,30.0,28.7,00.0,39.1,31.8,21.4,0000.0,0012.09,0003.94,0002.45
2022-05-18 15:11:00,,0827.7,5.00,0.00,30.0,28.7,00.0,39.1,31.8,21.1,0000.0,0011.90,0003.96,0002.43
2022-05-18 15:12:00,,0827.7,5.00,0.00,30.0,28.7,00.0,39.1,31.8,20.4,0000.0,0010.56,0003.90,0002.39
2022-05-18 15:13:00,,0827.7,5.01,0.00,30.0,28.8,00.0,39.1,31.9,21.3,0000.0,0010.75,0003.89,0002.37
2022-05-18 15:14:00,,0827.7,5.00,0.00,30.1,28.8,00.0,39.1,31.9,21.3,0000.0,0010.79,0003.86,0002.35
2022-05-18 15:15:00,,0827.7,5.01,0.00,30.1,28.8,00.0,39.1,31.9,23.0,0000.0,0010.57,0003.77,0002.33
2022-05-18 15:16:00,,0827.7,5.00,0.00,30.1,28.9,00.0,39.1,31.9,23.3,0000.0,0010.78,0003.76,0002.35
2022-05-18 15:17:00,,0827.7,4.99,0.00,30.1,28.9,00.0,39.1,31.9,23.2,0000.0,0010.74,0003.78,0002.36
2022-05-18 15:18:00,,0827.7,5.01,0.00,30.1,28.9,00.0,39.1,32.0,23.1,0000.0,0010.91,0003.77,0002.37
2022-05-18 15:19:00,,0827.7,4.99,0.00,30.1,28.9,00.0,39.1,32.0,23.3,0000.0,0011.11,0003.85,0002.41
2022-05-18 15:20:00,,0827.7,5.01,0.00,30.1,29.0,00.0,39.2,32.0,23.9,0000.0,0011.74,0003.90,0002.44
2022-05-18 15:21:00,,0827.7,5.00,0.00,30.2,29.0,00.0,39.2,32.0,24.3,0000.0,0012.02,0003.93,0002.47
2022-05-18 15:22:00,,0827.7,4.99,0.00,30.2,29.0,00.0,39.2,32.0,23.9,0000.0,0011.79,0003.97,0002.51
2022-05-18 15:23:00,,0827.7,5.00,0.00,30.2,29.0,00.0,39.2,32.0,24.0,0000.0,0012.19,0004.00,0002.55
2022-05-18 15:24:00,,0827.7,5.00,0.00,30.2,29.0,00.0,39.2,32.0,24.2,0000.0,0012.91,0004.05,0002.59
2022-05-18 15:25:00,,0827.7,5.00,0.00,30.2,29.0,00.0,39.2,32.0,24.1,0000.0,0014.45,0004.13,0002.62
2022-05-18 15:26:00,,0827.7,5.00,0.00,30.2,29.1,00.0,39.2,32.0,23.9,0000.0,0014.60,0004.20,0002.63
2022-05-18 15:27:00,,0827.6,5.00,0.00,30.2,29.1,00.0,39.2,32.1,23.3,0000.0,0014.63,0004.27,0002.62
2022-05-18 15:28:00,,0827.7,5.00,0.00,30.3,29.1,00.0,39.2,32.1,22.9,0000.0,0014.41,0004.29,0002.62
2022-05-18 15:29:00,,0827.7,5.00,0.00,30.3,29.1,00.0,39.3,32.1,21.5,0000.0,0014.72,0004.31,0002.61
2022-05-18 15:30:00,,0827.7,5.00,0.00,30.3,29.2,00.0,39.3,32.1,22.0,0000.0,0014.80,0004.22,0002.57
2022-05-18 15:31:00,,0827.7,5.01,0.00,30.3,29.2,00.0,39.3,32.1,21.7,0000.0,0014.25,0004.17,0002.52
2022-05-18 15:32:00,,0827.7,5.01,0.00,30.3,29.2,00.0,39.3,32.1,21.4,0000.0,0013.74,0004.09,0002.48
2022-05-18 15:33:00,,0827.7,5.01,0.00,30.3,29.2,00.0,39.3,32.1,21.9,0000.0,0013.87,0003.96,0002.42
2022-05-18 15:34:00,,0827.7,4.99,0.00,30.3,28.9,00.0,39.3,32.1,21.0,0000.0,0013.52,0003.93,0002.37
2022-05-18 15:35:00,,0827.6,4.98,0.00,30.2,28.6,00.0,39.3,31.9,21.9,0000.0,0012.67,0003.90,0002.32
2022-05-18 15:36:00,,0827.7,5.00,0.00,30.2,28.4,00.0,39.3,31.8,23.1,0000.0,0011.03,0003.82,0002.29
2022-05-18 15:37:00,,0827.6,5.00,0.00,30.1,28.1,00.0,39.3,31.7,23.9,0000.0,0010.94,0003.85,0002.29
2022-05-18 15:38:00,,0827.7,4.99,0.00,30.0,28.0,00.0,39.3,31.5,24.3,0000.0,0011.04,0003.80,0002.29
2022-05-18 15:39:00,,0827.6,4.99,0.00,29.9,27.9,00.0,39.3,31.5,24.2,0000.0,0011.44,0003.80,0002.30
2022-05-18 15:40:00,,0827.6,5.01,0.00,29.9,27.7,00.0,39.2,31.4,24.4,0000.0,0011.51,0003.84,0002.33
2022-05-18 15:41:00,,0827.6,4.99,0.00,29.8,27.6,00.0,39.2,31.3,24.1,0000.0,0012.37,0003.92,0002.35
2022-05-18 15:42:00,,0827.6,5.00,0.00,29.7,27.4,00.0,39.1,31.2,23.7,0000.0,0013.40,0003.90,0002.38
2022-05-18 15:43:00,,0827.5,5.01,0.00,29.5,27.2,00.0,39.1,31.0,23.6,0000.0,0013.33,0003.90,0002.39
2022-05-18 15:44:00,,0827.5,5.01,0.00,29.5,27.1,00.0,39.0,30.9,24.1,0000.0,0013.16,0003.94,0002.40
2022-05-18 15:45:00,,0827.5,4.98,0.00,29.4,27.0,00.0,39.0,30.8,23.4,0000.0,0013.41,0003.95,0002.42
2022-05-18 15:46:00,,0827.5,4.99,0.00,29.3,26.8,00.0,38.9,30.7,23.5,0000.0,0014.24,0003.94,0002.44
2022-05-18 15:47:00,,0827.6,5.01,0.00,29.2,26.7,00.0,38.8,30.6,23.2,0000.0,0014.17,0003.92,0002.43
2022-05-18 15:48:00,,0827.5,5.00,0.00,29.1,26.7,00.0,38.8,30.5,23.4,0000.0,0013.86,0003.85,0002.40
2022-05-18 15:49:00,,0827.6,5.00,0.00,29.1,26.7,00.0,38.7,30.5,23.5,0000.0,0014.58,0003.84,0002.37
2022-05-18 15:50:00,,0827.6,4.99,0.00,29.0,26.8,00.0,38.7,30.5,23.8,0000.0,0014.10,0003.86,0002.36
2022-05-18 15:50:22,,,,,,,,,,,,,,
2022-05-18 15:51:00,,,,,,,,,,,,,,
2022-05-18 15:52:00,,,,,,,,,,,,,,
2022-05-18 15:53:00,,,,,,,,,,,,,,
2022-05-18 15:54:00,,,,,,,,,,,,,,
2022-05-18 15:55:00,,,,,,,,,,,,,,
2022-05-18 15:56:00,,,,,,,,,,,,,,
2022-05-18 15:57:00,,,,,,,,,,,,,,
2022-05-18 15:58:00,,,,,,,,,,,,,,
2022-05-18 15:59:00,,,,,,,,,,,,,,
